Location: Ay?beleni
(36.6500°N, 30.3000°E)
Time: 09:26:20
(UTC+00:00)

Cosmos 2228 - Pass Details

Date: 09 April 2020
Orbit: 588 x 619 km, 82.5° (Epoch: 31 May)

Event Time Altitude Azimuth Distance (km) Brightness Sun altitude
Rises 17:26:44 0° 190° (S) 2,825 6.3 -12.1°
Reaches altitude 10° 17:28:55 10° 192° (SSW) 1,932 5.5 -12.6°
Maximum altitude 17:33:11 75° 277° (W) 629 3.2 -13.4°
Drops below altitude 10° 17:37:32 10° 3° (N) 1,966 5.9 -14.2°
Sets 17:39:47 0° 5° (N) 2,879 6.7 -14.6°
